Weather in Zemetchino

Russia / Penza Oblast     53°29′45″N   42°36′52″E
temp.,
°C
wind,
m/s
gust,
m/s
humid.,
%
clouds,
%
prec.,
mm/h
press.,
hPa
HPBL,
m
21 january, fri
fri2100:00−13s61690100 0.0 1015330
03:00−13s61689100 0.0 1014336
06:00−12s71690100 0.0 1012344
09:00−11sse71789100 0.0 1011496
12:00−8sse92092100 0.3 1009612
15:00−7sse91893100 1.5 1007768
18:00−6sse81693100 0.8 1006641
21:00−5sse81695100 2.1 1004695
22 january, sat
sat2200:00−4sw5108976 0.9 1006443
03:00−9s5129568 0.9 1008255
06:00−10sse5129571 0.0 1009245
09:00−11sse41196100 0.0 1011214
12:00−9s5129485 0.0 1012332
15:00−8sse5119489 0.0 1013308
18:00−11sse31096100 0.0 1016165
21:00−11sse3796100 0.0 1017119
23 january, sun
sun2300:00−12sse359757 0.0 101979
03:00−17sse2210099 0.0 102137
06:00−12se25100100 0.1 1023127
09:00−8se3595100 0.1 1025268
12:00−7e2394100 0.0 1026174
15:00−6ne3594100 0.0 1028166
18:00−6ne4995100 0.0 1029232
21:00−5ene41196100 0.3 1029403
24 january, mon
mon2400:00−4e51096100 0.7 1030460
03:00−5e5990100 1.2 1031398
06:00−9e41090100 0.0 1031211
09:00−10e41089100 0.0 1032233
12:00−7e4988100 0.0 1032310
15:00−7e4988100 0.0 1032282
18:00−10e3992100 0.0 1032150
21:00−12e3794100 0.0 1032111
25 january, tue
tue2500:00−11ese4119097 0.0 1031205
03:00−12se41190100 0.0 1030191
06:00−11se41088100 0.0 1030216
09:00−13se31090100 0.0 1030195
12:00−10sse51286100 0.0 1029292
15:00−9se41189100 0.0 1028279
18:00−13se411937 0.0 1028181
21:00−13sse4129311 0.0 1028197